Regional Weather Roundup
Issued by NWS

Home | Current Version | Previous Version | Text Only | Print | Product List | Glossary On
Versions: 1 2 3 4 5 6 7 8 9 10 11 12 13 14 15 16 17 18 19 20 21 22 23 24 25 26 27 28 29 30 31 32 33 34 35 36 37 38 39 40 41 42 43 44 45 46 47 48 49 50
000
ASUS42 KFFC 101603
RWRGA
WEATHER ROUNDUP FOR GEORGIA
NATIONAL WEATHER SERVICE PEACHTREE CITY GA
1100 AM EST WED FEB 10 2016

NOTE: "FAIR" INDICATES FEW OR NO CLOUDS BELOW 12,000 FEET WITH NO
SIGNIFICANT WEATHER AND/OR OBSTRUCTIONS TO VISIBILITY.

* = USE WITH CAUTION. THE STATIONS MARKED WITH AN ASTERISK MAY NOT
REPORT WEATHER SUCH AS PRECIPITATION, FOG, OR THUNDER AND ARE NOT
QUALITY CONTROLLED BY NWS.

THE REMARK "TC" DENOTES TEMPERATURE READING IN DEGREES CELSIUS.

GAZ001>058-101700-
NORTH GEORGIA

CITY           SKY/WX    TMP DP  RH WIND       PRES   REMARKS
ATLANTA        MOSUNNY   30  11  45 W16G29    30.15R WCI  19
ATHENS         MOSUNNY   28  10  46 NW14G33   30.10S WCI  17
CHAMBLEE       PTSUNNY   28  11  48 W18G29    30.13R WCI  15
PEACHTREE CITY CLOUDY    28  12  51 W12G25    30.18R WCI  18
ROME             N/A    N/A N/A N/A MISG      30.18R
WEST ATLANTA   PTSUNNY   28   9  44 W16G26    30.16R WCI  16
GAINESVILLE    MOSUNNY   25   8  48 W15G28    30.08R WCI  13
CARTERSVILLE   PTSUNNY   27  10  49 VRB5      30.18R WCI  22


CITY           SKY/WX    TMP DP  RH WIND       PRES   REMARKS
LAWRENCEVILLE* PTSUNNY   27  10  50 W17G25    30.10R WCI  14
MARIETTA       PTSUNNY   26  10  48 W15G26    30.14R WCI  14
KENNESAW*      PTSUNNY   25   7  46 NW13G21   30.16R WCI  13
BLAIRSVILLE*   LGT SNOW  19  -4  36 NW3       30.05R
$$

GAZ059>098-102>109-101700-
CENTRAL GEORGIA

CITY           SKY/WX    TMP DP  RH WIND       PRES   REMARKS
AUGUSTA-BUSH   SUNNY     34  11  38 W20G29    30.09F WCI  23
COLUMBUS       SUNNY     34  12  40 NW15G25   30.23F WCI  24
MACON          SUNNY     33  13  43 NW15G25   30.19S WCI  23
ROBINS AFB     SUNNY     34  10  36 NW21      30.19S WCI  23


CITY           SKY/WX    TMP DP  RH WIND       PRES   REMARKS
LAGRANGE*      MOSUNNY   35  19  52 NW15G23   30.20F WCI  25
SYLVANIA*      SUNNY     37  21  52 NW17      30.11S WCI  28
MILLEDGEVILLE* SUNNY     32  12  43 W14G20    30.15S WCI  22
$$

GAZ099>101-110>166-101700-
SOUTH GEORGIA

CITY           SKY/WX    TMP DP  RH WIND       PRES   REMARKS
SAVANNAH       MOSUNNY   38  17  42 W23G29    30.12S WCI  27
VALDOSTA       SUNNY     39  16  39 NW9G17    30.24R WCI  33
ALMA           SUNNY     36  17  46 W15G26    30.19R WCI  27
ST SIMONS      SUNNY     39  18  42 W16G25    30.15S WCI  30
FT STEWART     SUNNY     38  18  44 W23G33    30.12S WCI  27
ALBANY         SUNNY     37  12  35 W15G24    30.27S WCI  28
HUNTER AFB     SUNNY     38  18  43 W20       30.09S WCI  28
MOODY AFB      SUNNY     37  16  41 W14G21    30.22R WCI  29
BRUNSWICK      SUNNY     41  21  45 W18G26    30.17R


CITY           SKY/WX    TMP DP  RH WIND       PRES   REMARKS
BAINBRIDGE*    SUNNY     37  16  41 W15       30.29S WCI  28
MOULTRIE*      SUNNY     36  18  48 W15       30.25S WCI  26
VIDALIA*       SUNNY     36  19  51 W10G20    30.16S WCI  28
WAYCROSS*      SUNNY     41  23  48 W17       30.19S
DOUGLAS*       SUNNY     39  19  45 NW12G20   30.22S WCI  32
$$



USA.gov is the U.S. government's official web portal to all federal, state and local government web resources and services.